Regional Weather Roundup
Issued by NWS Goodland, KS

Home | Current Version | Previous Version | Text Only | Print | Product List | Glossary Off
Versions: 1 2 3 4 5 6 7 8 9 10 11 12 13 14 15 16 17 18 19 20 21 22 23 24 25 26 27 28 29 30 31 32 33 34 35 36 37 38 39 40 41 42 43 44 45 46 47 48 49 50

000
ASUS43 KGLD 270059
RWRGLD

GOODLAND FORECAST AREA HOURLY WEATHER ROUNDUP
NATIONAL WEATHER SERVICE GOODLAND KS
700 PM MDT FRI MAY 26 2017

...OFFICIAL OBSERVATIONS...

CITY           SKY/WX    TMP DP  RH WIND       PRES   REMARKS
GOODLAND KS    CLOUDY    69  53  56 E14       29.82F
HILL CITY KS   CLEAR     76  53  44 SE7       29.83F
IMPERIAL NEB   CLOUDY    65  51  60 S5        29.90R
MCCOOK NEB     CLOUDY    72  49  44 SE5       29.86R
AKRON CO       LGT RAIN  57  51  80 SE12      29.82S
BURLINGTON CO  CLOUDY    70  50  49 SE20G28   29.80F
LIMON CO       TSTM      53  44  71 W31G41    29.91R
$$

...UNOFFICIAL OBSERVATIONS...

CITY           SKY/WX    TMP DP  RH WIND       PRES   REMARKS
LENORA KS        N/A     69  32  25 MISG        N/A
NORTON KS      CLEAR     68  48  49 E5        29.85R
SHARON SPRINGS   N/A     73  54  51 NE10G20     N/A
TRENTON NEB      N/A     69  32  25 CALM        N/A
$$




USA.gov is the U.S. government's official web portal to all federal, state and local government web resources and services.